CN8UN-10 Weather Reports


time (UTC)temp
C
wind
direction
speed
KPH
gust
KPH
rain 1hr
cm
rain 24hr
cm
rain mn
cm
humidity
%
barometer
mb
20260505140457 20 347 17.7 24.1 0.00 0.00 0.00 100
20260505124957 20 14 8.0 19.3 0.00 0.00 0.00 100
20260505124457 20 322 8.0 24.1 0.00 0.00 0.00 100
20260505123957 20 32 4.8 19.3 0.00 0.00 0.00 100
20260505123457 20 329 16.1 17.7 0.00 0.00 0.00 100
20260505122957 20 82 12.9 17.7 0.00 0.00 0.00 100
20260505122457 20 338 12.9 17.7 0.00 0.00 0.00 100
20260505121957 20 26 3.2 16.1 0.00 0.00 0.00 100
20260505121457 20 355 12.9 19.3 0.00 0.00 0.00 100
20260505120957 20 344 17.7 17.7 0.00 0.00 0.00 100
20260505120457 20 337 8.0 14.5 0.00 0.00 0.00 100
20260505115957 20 97 4.8 16.1 0.00 0.00 0.00 100
20260505115457 20 341 9.7 19.3 0.00 0.00 0.00 100
20260505114957 20 327 8.0 14.5 0.00 0.00 0.00 100
20260505114457 20 139 1.6 11.3 0.00 0.00 0.00 100
20260505113957 20 315 3.2 12.9 0.00 0.00 0.00 100
20260505113457 20 112 0.0 17.7 0.00 0.00 0.00 100
20260505112957 20 300 8.0 16.1 0.00 0.00 0.00 100
20260505112457 20 153 0.0 19.3 0.00 0.00 0.00 100
20260505111957 20 305 12.9 12.9 0.00 0.00 0.00 100
20260505111457 20 21 11.3 14.5 0.00 0.00 0.00 100
20260505110957 20 11 3.2 19.3 0.00 0.00 0.00 100
20260505110457 20 355 9.7 16.1 0.00 0.00 0.00 100
20260505101957 19 286 3.2 6.4 0.00 0.00 0.00 100
20260505101457 19 338 9.7 9.7 0.00 0.00 0.00 100
20260505100957 19 66 3.2 8.0 0.00 0.00 0.00 100
20260505100457 18 43 0.0 3.2 0.00 0.00 0.00 100
20260505095957 18 21 0.0 3.2 0.00 0.00 0.00 100
20260505095457 18 84 0.0 6.4 0.00 0.00 0.00 100
20260505094957 18 109 0.0 6.4 0.00 0.00 0.00 100
20260505094457 18 32 4.8 12.9 0.00 0.00 0.00 100
20260505093957 18 59 0.0 6.4 0.00 0.00 0.00 100
20260505093457 18 21 6.4 8.0 0.00 0.00 0.00 100
20260505092957 18 66 3.2 11.3 0.00 0.00 0.00 100
20260505092457 18 352 9.7 11.3 0.00 0.00 0.00 100
20260505091957 18 351 3.2 9.7 0.00 0.00 0.00 100
20260505091457 18 105 6.4 11.3 0.00 0.00 0.00 100
20260505091009 18 84 9.7 11.3 0.00 0.00 0.00 100
20260505090457 18 22 4.8 6.4 0.00 0.00 0.00 100
20260505085957 18 8 4.8 9.7 0.00 0.00 0.00 100
20260505085457 18 68 1.6 9.7 0.00 0.00 0.00 100
20260505084957 18 46 6.4 9.7 0.00 0.00 0.00 100
20260505084457 18 59 1.6 8.0 0.00 0.00 0.00 100
20260505083957 18 75 8.0 9.7 0.00 0.00 0.00 100
20260505083457 18 40 1.6 9.7 0.00 0.00 0.00 100
20260505082957 18 82 1.6 6.4 0.00 0.00 0.00 100
20260505082457 18 40 3.2 8.0 0.00 0.00 0.00 100
20260505081957 18 67 3.2 8.0 0.00 0.00 0.00 100
20260505081457 18 88 4.8 4.8 0.00 0.00 0.00 100
20260505080957 17 95 0.0 4.8 0.00 0.00 0.00 100
20260505080457 17 53 1.6 8.0 0.00 0.00 0.00 100
20260505075957 18 60 1.6 3.2 0.00 0.00 0.00 100
20260505075457 17 167 0.0 0.0 0.00 0.00 0.00 100
20260505074957 17 167 0.0 0.0 0.00 0.00 0.00 100
20260505074457 17 167 0.0 0.0 0.00 0.00 0.00 100
20260505073957 17 167 0.0 0.0 0.00 0.00 0.00 100
20260505073457 17 220 0.0 1.6 0.00 0.00 0.00 100
20260505072957 17 203 0.0 1.6 0.00 0.00 0.00 100
20260505072457 17 194 0.0 3.2 0.00 0.00 0.00 100
20260505071957 17 213 1.6 3.2 0.00 0.00 0.00 100
20260505071457 17 132 0.0 0.0 0.00 0.00 0.00 100
20260505070957 17 132 0.0 0.0 0.00 0.00 0.00 100
20260505070457 17 192 0.0 1.6 0.00 0.00 0.00 100
20260505065957 17 192 0.0 0.0 0.00 0.00 0.00 100
20260505065457 17 192 0.0 1.6 0.00 0.00 0.00 100
20260505064957 17 172 0.0 0.0 0.00 0.00 0.00 100
20260505064457 17 172 0.0 4.8 0.00 0.00 0.00 100
20260505063957 17 227 3.2 4.8 0.00 0.00 0.00 100
20260505063457 17 85 0.0 3.2 0.00 0.00 0.00 100
20260505062957 17 250 3.2 3.2 0.00 0.00 0.00 100
20260505062457 17 251 0.0 1.6 0.00 0.00 0.00 100
20260505061957 17 227 0.0 3.2 0.00 0.00 0.00 100
20260505061457 17 210 0.0 0.0 0.00 0.00 0.00 100
20260505060957 17 210 0.0 0.0 0.00 0.00 0.00 100
20260505060457 17 210 0.0 0.0 0.00 0.00 0.00 100
20260505055957 17 210 0.0 0.0 0.00 0.00 0.00 100
20260505055457 17 237 0.0 1.6 0.00 0.00 0.00 100
20260505054957 17 158 0.0 3.2 0.00 0.00 0.00 100
20260505054457 17 234 1.6 1.6 0.00 0.00 0.00 100
20260505053957 17 248 0.0 3.2 0.00 0.00 0.00 100
20260505053457 17 213 1.6 3.2 0.00 0.00 0.00 100
20260505052957 17 180 0.0 0.0 0.00 0.00 0.00 100
20260505052457 17 223 0.0 0.0 0.00 0.00 0.00 100
20260505051957 17 139 0.0 1.6 0.00 0.00 0.00 100
20260505051457 17 191 0.0 3.2 0.00 0.00 0.00 100
20260505050957 17 177 1.6 3.2 0.00 0.00 0.00 100
20260505050457 18 174 1.6 3.2 0.00 0.00 0.00 100
20260505041457 18 206 0.0 3.2 0.00 0.00 0.00 100
20260505040957 18 119 0.0 3.2 0.00 0.00 0.00 100
20260505040457 17 199 0.0 4.8 0.00 0.00 0.00 100
20260505035957 18 232 3.2 3.2 0.00 0.00 0.00 100
20260505035457 18 172 0.0 0.0 0.00 0.00 0.00 100
20260505034957 18 146 0.0 3.2 0.00 0.00 0.00 100
20260505034457 18 233 1.6 1.6 0.00 0.00 0.00 100
20260505033957 18 223 0.0 4.8 0.00 0.00 0.00 100
20260505033457 18 172 0.0 4.8 0.00 0.00 0.00 100
20260505032957 17 220 1.6 3.2 0.00 0.00 0.00 100
20260505032457 17 149 0.0 0.0 0.00 0.00 0.00 100
20260505031957 18 149 0.0 0.0 0.00 0.00 0.00 100
20260505031457 18 149 0.0 0.0 0.00 0.00 0.00 100
20260505030957 18 28 0.0 0.0 0.00 0.00 0.00 100
20260505030457 18 28 0.0 0.0 0.00 0.00 0.00 100
20260505025957 18 28 0.0 0.0 0.00 0.00 0.00 100
20260505025457 18 28 0.0 0.0 0.00 0.00 0.00 100
20260505024957 17 28 0.0 0.0 0.00 0.00 0.00 100
20260505024457 18 28 0.0 1.6 0.00 0.00 0.00 100
20260505023957 18 49 0.0 0.0 0.00 0.00 0.00 100
20260505023457 18 49 0.0 3.2 0.00 0.00 0.00 100
20260505022957 18 73 0.0 3.2 0.00 0.00 0.00 100
20260505022457 18 82 0.0 3.2 0.00 0.00 0.00 100
20260505021957 18 85 3.2 4.8 0.00 0.00 0.00 100
20260505021457 18 63 3.2 3.2 0.00 0.00 0.00 100
20260505020957 18 106 0.0 3.2 0.00 0.00 0.00 100
20260505020457 18 59 1.6 1.6 0.00 0.00 0.00 100
20260505015958 18 67 0.0 1.6 0.00 0.00 0.00 100
20260505015457 18 19 0.0 3.2 0.00 0.00 0.00 100
20260505014957 18 22 3.2 3.2 0.00 0.00 0.00 100
20260505014457 18 12 3.2 3.2 0.00 0.00 0.00 100
20260505013957 18 21 0.0 3.2 0.00 0.00 0.00 100
20260505013457 18 43 0.0 3.2 0.00 0.00 0.00 100
20260505012957 18 61 0.0 3.2 0.00 0.00 0.00 100
20260505012457 18 61 1.6 3.2 0.00 0.00 0.00 100
20260505011957 18 338 0.0 1.6 0.00 0.00 0.00 100
20260505011457 18 23 1.6 3.2 0.00 0.00 0.00 100
20260505010957 18 21 0.0 3.2 0.00 0.00 0.00 100
20260505010457 18 29 0.0 3.2 0.00 0.00 0.00 100
20260505005957 18 11 0.0 1.6 0.00 0.00 0.00 100
20260505005457 18 67 0.0 1.6 0.00 0.00 0.00 100
20260505004957 18 77 0.0 3.2 0.00 0.00 0.00 100
20260505004457 18 68 1.6 3.2 0.00 0.00 0.00 100
20260505003958 18 53 1.6 3.2 0.00 0.00 0.00 100
20260505003457 18 14 1.6 3.2 0.00 0.00 0.00 100
20260505002957 18 74 0.0 3.2 0.00 0.00 0.00 100
20260505002457 18 18 1.6 4.8 0.00 0.00 0.00 100
20260505001957 18 54 1.6 4.8 0.00 0.00 0.00 100
20260505001458 18 25 3.2 4.8 0.00 0.00 0.00 100
20260505000957 18 29 3.2 4.8 0.00 0.00 0.00 100
20260505000457 18 19 4.8 4.8 0.00 0.00 0.00 100
20260504235957 18 42 3.2 4.8 0.00 0.00 0.00 100
20260504235457 18 22 3.2 4.8 0.00 0.00 0.00 100
20260504234957 18 21 3.2 4.8 0.00 0.00 0.00 100
20260504234457 18 9 3.2 4.8 0.00 0.00 0.00 100
20260504233957 18 18 1.6 4.8 0.00 0.00 0.00 100
20260504233457 19 39 4.8 4.8 0.00 0.00 0.00 100
20260504232957 18 33 4.8 4.8 0.00 0.00 0.00 100
20260504232458 19 8 0.0 4.8 0.00 0.00 0.00 100
20260504231958 19 35 1.6 8.0 0.00 0.00 0.00 100
20260504231457 18 16 3.2 6.4 0.00 0.00 0.00 100
20260504230958 18 5 6.4 6.4 0.00 0.00 0.00 100
20260504230457 18 28 1.6 6.4 0.00 0.00 0.00 100
20260504225957 19 14 3.2 6.4 0.00 0.00 0.00 100
20260504225457 18 39 3.2 6.4 0.00 0.00 0.00 100
20260504224957 19 9 4.8 6.4 0.00 0.00 0.00 100
20260504224458 19 7 6.4 6.4 0.00 0.00 0.00 100
20260504223958 19 21 3.2 6.4 0.00 0.00 0.00 100
20260504223458 19 30 1.6 4.8 0.00 0.00 0.00 100
20260504222958 19 347 4.8 8.0 0.00 0.00 0.00 100
20260504222458 19 350 3.2 6.4 0.00 0.00 0.00 100
20260504221958 19 354 3.2 8.0 0.00 0.00 0.00 100
20260504221458 19 344 1.6 6.4 0.00 0.00 0.00 100
20260504220958 19 347 1.6 6.4 0.00 0.00 0.00 100
20260504220458 19 317 3.2 6.4 0.00 0.00 0.00 100
20260504215958 19 40 1.6 6.4 0.00 0.00 0.00 100
20260504215458 19 23 1.6 4.8 0.00 0.00 0.00 100
20260504214958 19 7 1.6 4.8 0.00 0.00 0.00 100
20260504214458 19 19 1.6 6.4 0.00 0.00 0.00 100
20260504213958 19 12 4.8 6.4 0.00 0.00 0.00 100
20260504213458 19 39 4.8 6.4 0.00 0.00 0.00 100
20260504212958 19 12 0.0 4.8 0.00 0.00 0.00 100
20260504212458 20 357 3.2 4.8 0.00 0.00 0.00 100
20260504211958 20 54 3.2 9.7 0.00 0.00 0.00 100
20260504211458 20 21 4.8 6.4 0.00 0.00 0.00 100
20260504210958 20 15 3.2 6.4 0.00 0.00 0.00 100
20260504210458 20 14 6.4 8.0 0.00 0.00 0.00 100
20260504205958 20 22 8.0 8.0 0.00 0.00 0.00 100
20260504205458 20 9 4.8 8.0 0.00 0.00 0.00 100
20260504204958 20 19 6.4 8.0 0.00 0.00 0.00 100
20260504204458 19 45 1.6 9.7 0.00 0.00 0.00 100
20260504203958 20 348 3.2 11.3 0.00 0.00 0.00 100
20260504203458 20 1 9.7 11.3 0.00 0.00 0.00 100
20260504202958 20 30 6.4 11.3 0.00 0.00 0.00 100
20260504202458 20 46 6.4 11.3 0.00 0.00 0.00 100
20260504201958 20 52 9.7 11.3 0.00 0.00 0.00 100
20260504201458 20 54 8.0 9.7 0.00 0.00 0.00 100
20260504200958 20 11 8.0 8.0 0.00 0.00 0.00 100
20260504200458 20 16 6.4 9.7 0.00 0.00 0.00 100
20260504195958 20 337 6.4 9.7 0.00 0.00 0.00 100
20260504195458 20 25 4.8 8.0 0.00 0.00 0.00 100
20260504194958 20 21 4.8 9.7 0.00 0.00 0.00 100
20260504194458 20 54 4.8 9.7 0.00 0.00 0.00 100
20260504193958 20 305 3.2 11.3 0.00 0.00 0.00 100
20260504193458 20 351 8.0 12.9 0.00 0.00 0.00 100
20260504192958 20 358 6.4 12.9 0.00 0.00 0.00 100
20260504192458 20 35 4.8 16.1 0.00 0.00 0.00 100
20260504191958 20 340 6.4 12.9 0.00 0.00 0.00 100
20260504191458 20 30 12.9 14.5 0.00 0.00 0.00 100
20260504190958 20 7 6.4 17.7 0.00 0.00 0.00 100
20260504190458 20 19 4.8 12.9 0.00 0.00 0.00 100
20260504185958 20 57 6.4 16.1 0.00 0.00 0.00 100
20260504185458 20 348 16.1 17.7 0.00 0.00 0.00 100
20260504184958 20 101 9.7 17.7 0.00 0.00 0.00 100
20260504184458 20 333 8.0 19.3 0.00 0.00 0.00 100
20260504183958 20 16 9.7 19.3 0.00 0.00 0.00 100
20260504183458 20 358 8.0 14.5 0.00 0.00 0.00 100
20260504182958 20 119 3.2 19.3 0.00 0.00 0.00 100
20260504182458 20 26 19.3 19.3 0.00 0.00 0.00 100
20260504181958 20 358 6.4 16.1 0.00 0.00 0.00 100
20260504181458 20 61 8.0 19.3 0.00 0.00 0.00 100
20260504180958 20 348 8.0 16.1 0.00 0.00 0.00 100
20260504180458 20 326 8.0 19.3 0.00 0.00 0.00 100
20260504175958 20 18 11.3 20.9 0.00 0.00 0.00 100
20260504175458 20 22 16.1 17.7 0.00 0.00 0.00 100
20260504174958 20 23 11.3 20.9 0.00 0.00 0.00 100
20260504174458 20 25 12.9 17.7 0.00 0.00 0.00 100
20260504173958 20 11 6.4 16.1 0.00 0.00 0.00 100
20260504173458 20 1 4.8 17.7 0.00 0.00 0.00 100
20260504172958 20 28 4.8 19.3 0.00 0.00 0.00 100
20260504172458 20 28 11.3 17.7 0.00 0.00 0.00 100
20260504171958 20 33 6.4 19.3 0.00 0.00 0.00 100
20260504171458 20 25 9.7 19.3 0.00 0.00 0.00 100
20260504170958 20 35 17.7 17.7 0.00 0.00 0.00 100
20260504170458 20 345 8.0 20.9 0.00 0.00 0.00 100
20260504150958 21 355 14.5 20.9 0.00 0.00 0.00 100
20260504150458 21 324 9.7 17.7 0.00 0.00 0.00 100